Location: ?bi?a??l Tepesi
(38.9017°N, 32.1532°E)
Time: 09:18:56
(UTC+00:00)

Daily predictions for brighter satellites

Satellite Brightness Start Highest point End
(mag) Time Altitude Azimuth Time Altitude Azimuth Time Altitude Azimuth
Meteor 2-1 Rocket 4.3 17:17:07 10° S 17:22:42 61° E 17:28:12 10° NNE
ATLAS 3B R/B 3.1 17:16:34 10° NNW 17:24:16 65° NE 17:31:25 10° SE
Cosmos 2100 Rocket 4.1 17:20:55 10° S 17:26:59 59° E 17:33:09 10° NNE
SL-4 R/B 2.3 17:25:06 10° WNW 17:28:50 55° SW 17:32:38 10° SE
Gbstr 26 Del rocket 4.3 17:26:04 10° NW 17:31:04 38° NNE 17:35:13 10° E
ERS-1 Rocket 3.6 17:29:38 10° SE 17:34:13 38° ENE 17:38:49 10° N
ASTEX 1 3.4 17:29:54 10° SSE 17:34:48 67° E 17:39:43 10° N
Meteor 2-3 Rocket 3.8 17:29:26 10° N 17:35:03 63° E 17:40:39 10° SSE
SL-24 R/B 4.4 17:31:15 10° NNE 17:35:32 56° E 17:40:22 10° S
Cosmos 909 Rocket 4.5 17:32:04 10° S 17:38:05 40° ESE 17:43:52 10° NE
CSL-04 Debris 4.2 17:34:24 10° SSE 17:39:48 75° ENE 17:45:15 10° N
Okean O Rocket 3.4 17:38:30 10° ESE 17:41:03 16° ENE 17:43:36 10° NNE
Cosmos 1455 Rocket 3.5 17:38:00 10° SSE 17:42:07 40° E 17:46:14 10° NNE
SJ 16-02 4.2 17:42:38 10° WNW 17:44:41 13° W 17:46:45 10° SW
Cosmos 1892 Rocket 4.4 17:42:55 10° NNE 17:46:47 32° ENE 17:50:04 13° SE
Cosmos 2082 Rocket 2.3 17:41:58 10° S 17:47:29 53° ESE 17:53:02 10° NNE
Cosmos 1461 4.2 17:49:29 14° SE 17:50:21 15° ESE 17:52:35 10° ENE
Cosmos 968 Rocket 3.7 17:47:27 10° NNW 17:52:42 74° WSW 17:57:53 10° S
Okean 1 Rocket 3.4 17:48:56 10° SSW 17:53:17 69° W 17:57:42 10° N
PAYLOAD B 4.3 17:47:55 10° SSE 17:53:19 60° ENE 17:58:46 10° N
NOSS 3-3 (A) 3.5 17:49:07 10° SSW 17:53:56 58° ESE 17:59:30 10° NE
GEOS 3 Rocket 3.7 17:51:43 13° SE 17:56:30 74° NE 18:01:52 10° NNW
Cosmos 1725 Rocket 4.0 17:50:39 10° S 17:56:49 62° E 18:02:58 10° NNE
Cosmos 2228 3.4 17:56:23 11° SSE 18:00:03 38° E 18:03:51 10° NNE
Okean-O 3.9 17:57:49 15° ESE 18:00:15 24° ENE 18:03:48 10° NNE
Cosmos 1452 Rocket 3.8 17:55:27 10° SSW 18:00:38 70° WNW 18:05:52 10° NNE
BREEZE-M DEB (TANK) 3.3 17:55:43 10° SW 18:04:03 56° SSE 18:06:55 10° ENE
Meteor 1-27 4.2 17:59:19 10° S 18:04:56 70° E 18:10:30 10° NNE
Cosmos 1697 Rocket 3.5 18:00:04 10° NNW 18:05:28 50° WSW 18:10:50 10° S
Cosmos 1741 Rocket 4.0 18:02:02 10° NNW 18:07:22 87° ENE 18:11:57 14° SSE
ADEOS 3.7 18:03:20 14° SSE 18:07:39 58° ENE 18:12:46 10° N
IRAS Rocket 4.3 18:02:38 10° SSE 18:08:06 80° WSW 18:13:37 10° NNW
Tsikada Rocket 4.5 18:03:08 10° N 18:08:55 41° ENE 18:12:58 18° SE
USA 186 3.3 18:08:52 15° ENE 18:08:58 15° ENE 18:10:42 10° NNE
Cosmos 1302 Rocket 3.9 18:05:58 10° SSW 18:11:07 87° ESE 18:16:20 10° NNE
Cosmos 2016 Rocket 3.9 18:05:58 10° S 18:12:13 76° E 18:18:25 10° N
CZ-4C R/B 4.1 18:09:43 10° W 18:13:13 25° NW 18:17:24 10° NNE
ISS -0.7 18:12:07 10° WNW 18:14:10 15° NNW 18:16:12 10° NNE
SL-16 R/B 3.9 18:14:27 10° N 18:18:33 20° NE 18:21:28 14° E
Cosmos 2084 Rocket 4.2 18:16:56 10° NNW 18:20:54 39° NE 18:22:53 24° ESE
BREEZE-M DEB 3.9 18:16:03 10° SW 18:21:14 48° SE 18:26:14 10° ENE
USA 305 2.7 18:18:24 10° NW 18:22:27 60° NE 18:23:56 32° ESE
NOSS 3-3 (C) 3.5 18:20:02 10° SSW 18:25:01 85° ESE 18:30:52 10° NE
COSMOS 2406 3.4 18:19:43 10° S 18:25:13 51° ESE 18:30:46 10° NNE
SL-08 R/B 3.3 18:22:14 10° NNE 18:27:03 88° ESE 18:31:45 10° SSW
Meteor 1-31 Rocket 4.4 18:24:58 10° SSW 18:28:00 28° W 18:31:02 10° NW
DELTA 2 R/B (1) 3.6 18:22:46 10° W 18:28:22 86° N 18:33:13 14° E
Terra 2.1 18:27:23 15° S 18:31:16 66° W 18:35:57 10° NNW
Meteor 2-12 Rocket 4.4 18:26:55 10° N 18:33:00 72° E 18:37:04 22° SSE
Cosmos 1980 Rocket 2.5 18:30:20 10° NNW 18:35:58 66° WSW 18:39:50 20° S
MetOp-B 4.5 18:32:28 15° S 18:36:58 65° WSW 18:42:18 10° NNW
CZ-4 R/B 3.3 18:35:17 10° SSW 18:38:12 23° W 18:41:08 10° NW
BREEZE-M DEB (TANK) 4.3 18:34:24 10° WNW 18:38:18 43° SSW 18:44:47 21° SSE
YAOGAN 11 4.0 18:37:00 10° NNE 18:41:27 82° E 18:44:34 20° S
Cosmos 2061 Rocket 3.9 18:36:29 12° S 18:42:17 81° E 18:48:35 10° N
Cosmos 2333 Rocket 3.5 18:39:04 10° N 18:43:54 27° ENE 18:46:04 22° E
Cosmos 1743 3.4 18:41:13 10° NNW 18:44:01 36° W 18:45:16 24° SW
Cosmos 1933 4.0 18:44:27 33° E 18:44:27 33° E 18:47:36 10° NNE
Delta 2 Rocket 4.0 18:47:19 10° WSW 18:48:59 26° SW 18:48:59 26° SW
Cosmos 1375 Rocket 4.4 18:45:53 10° SSW 18:52:17 74° ESE 18:58:49 10° NNE
SPOT 3 Rocket 3.9 18:52:55 37° ESE 18:54:26 48° ENE 18:59:22 10° N
Cosmos 1782 4.5 18:52:02 10° SW 18:55:05 27° WNW 18:58:09 10° NNW
CZ-4B R/B 4.1 18:51:38 15° S 18:56:08 47° W 19:01:33 10° NNW
Ariane Rocket 3.6 18:57:02 34° E 18:58:10 39° ENE 19:02:51 10° N
Cosmos 1626 Rocket 3.5 18:54:14 10° N 18:58:34 64° E 18:59:19 53° SE
Cosmos 2098 Rocket 4.1 18:58:41 33° E 18:58:41 33° E 19:02:40 10° NNE
Cosmos 2360 Rocket 3.7 18:57:30 10° N 19:01:53 22° NE 19:03:37 19° E
Spot 2 Rocket 3.7 19:01:12 30° S 19:03:36 64° W 19:08:35 10° NNW
Cosmos 220 Rocket 4.0 19:04:06 52° E 19:04:06 52° E 19:07:40 10° NNE
Chandra Rocket (1) 4.0 18:45:54 10° W 19:07:09 47° SSW 19:09:56 35° SSE
ATLAS 3B R/B 4.4 19:08:24 10° NW 19:14:22 26° WSW 19:19:24 12° SSW
Longmarch 3A Rocket 4.4 19:14:25 10° SW 19:14:43 10° SW 19:14:43 10° SW
Cosmos 2219 Rocket 4.0 19:12:04 10° N 19:15:55 18° NE 19:17:33 16° ENE
Okean O Rocket 2.4 19:15:30 33° SW 19:16:50 43° W 19:20:57 10° NNW
Gbstr 26 Del rocket 3.7 19:13:01 10° WNW 19:17:27 39° SW 19:17:40 39° SW
Cosmos 2151 2.8 19:17:10 10° N 19:21:10 81° NE 19:21:10 81° NE
Cosmos 1891 Rocket 4.4 19:20:41 34° S 19:23:31 85° W 19:29:36 10° N
Cosmos 1461 4.1 19:22:52 10° WSW 19:26:18 36° NW 19:29:44 10° NNE
CZ-4B R/B 3.1 19:27:58 74° SE 19:28:22 82° ENE 19:33:11 10° NNW
Fengyun 1C 4.5 19:30:40 63° ESE 19:31:16 69° ENE 19:36:30 10° N
Cosmos 2322 Rocket 2.8 19:27:50 10° N 19:33:12 41° ENE 19:33:58 39° E
Okean 1-7 Rocket 4.3 19:29:52 10° N 19:33:33 43° NE 19:33:33 43° NE
Cosmos 1437 Rocket 3.8 19:36:11 37° WNW 19:36:11 37° WNW 19:39:29 10° N
Okean-O 4.2 19:35:08 24° SW 19:36:23 27° W 19:40:09 10° NW
Milstar 3 4.2 19:31:51 10° WSW 19:37:46 27° SSW 19:37:46 27° SSW
USA 186 4.5 19:38:59 13° WNW 19:38:59 13° WNW 19:39:43 10° WNW
Cosmos 1777 Rocket 4.4 19:33:51 10° N 19:38:53 46° ENE 19:39:00 46° ENE
IRS-1C Rocket 4.0 19:39:14 67° S 19:39:56 82° WSW 19:45:14 10° NNW
Nadezhda 4 Rocket 3.9 19:41:06 10° N 19:47:13 67° E 19:47:52 62° ESE
Meteor 2-10 4.1 19:48:42 10° N 19:54:27 76° E 19:54:40 75° ESE
Cosmos 1486 Rocket 3.9 19:51:53 10° NNW 19:57:02 79° NE 19:57:02 79° NE
Cosmos 2278 3.5 19:52:20 10° NNW 19:58:04 87° WSW 19:58:19 82° S
Meteor 1-5 Rocket 4.1 19:52:51 10° N 19:58:40 90° E 19:59:05 79° S
SL-16 R/B 2.3 19:57:28 10° NNW 20:03:03 61° WSW 20:03:19 60° WSW
Cosmos 2195 Rocket 4.5 19:59:16 10° N 20:05:26 63° E 20:05:36 63° E
Cosmos 1825 Rocket 4.3 20:04:33 10° N 20:07:46 49° NNW 20:07:46 49° NNW
Cosmos 2026 Rocket 4.2 20:03:57 10° N 20:10:14 58° E 20:10:23 58° E
DELTA 2 R/B (1) 3.8 20:09:15 10° W 20:13:54 63° W 20:13:54 63° W
Cosmos 540 Rocket 3.7 20:18:42 66° NNW 20:18:42 66° NNW 20:23:13 10° NNE
Cosmos 2333 Rocket 3.0 20:22:58 10° NW 20:28:05 42° W 20:28:05 42° W
Cosmos 2297 Rocket 4.3 20:35:26 14° ENE 20:35:26 14° ENE 20:36:38 10° ENE
ARIANE 5 R/B 4.5 20:34:30 24° NE 20:34:30 24° NE 20:36:56 10° N
NOSS 3-4 (A) 3.8 20:26:54 10° NW 20:34:00 82° WSW 20:34:49 72° S
NOSS 3-4 (C) 3.8 20:27:31 10° NW 20:34:38 83° WSW 20:35:28 73° S
USA 234 3.4 20:39:25 10° NE 20:44:47 58° E 20:44:47 58° E
Cosmos 2360 Rocket 2.8 20:40:40 10° NNW 20:45:21 49° WNW 20:45:21 49° WNW
Cosmos 1092 Rocket 4.0 20:49:53 10° N 20:55:38 71° WNW 20:55:38 71° WNW
Cosmos 2219 Rocket 2.7 20:54:44 10° NNW 20:59:14 54° NW 20:59:14 54° NW
Cosmos 2322 Rocket 3.8 21:12:21 10° NW 21:15:45 24° W 21:15:45 24° W
Cosmos 841 Rocket 4.4 21:29:05 45° N 21:29:05 45° N 21:32:45 10° NNE
Cosmos 2279 Rocket 4.4 21:29:54 56° WNW 21:29:54 56° WNW 21:35:38 10° N
Cosmos 2237 Rocket 3.5 21:30:34 10° N 21:35:34 31° ENE 21:35:41 31° ENE
CZ-2C R/B 3.7 21:37:19 38° NE 21:37:19 38° NE 21:41:16 10° N
Meteor 1-11 Rocket 4.3 21:34:32 10° N 21:38:54 53° NNE 21:38:54 53° NNE
Cosmos 2227 Rocket 3.8 21:44:30 24° ENE 21:44:30 24° ENE 21:47:26 10° NE
COSMOS 2428 3.3 21:38:33 10° NNW 21:42:51 53° NNW 21:42:51 53° NNW
ACS3 Solar Sail 3.2 21:40:57 10° NE 21:45:00 26° ENE 21:45:00 26° ENE
Cosmos 2263 Rocket 4.1 21:56:11 20° ENE 21:56:11 20° ENE 21:58:43 10° NE
Meteor 1-27 Rocket 4.2 21:56:56 59° NNE 21:56:56 59° NNE 22:01:33 10° N
Cosmos 2266 Rocket 4.3 21:58:18 10° NNW 22:03:14 57° NW 22:03:14 57° NW
Iridium 4 Rocket 4.4 22:11:57 49° NE 22:11:57 49° NE 22:16:35 10° N
Cosmos 2297 Rocket 2.9 22:17:12 49° NNW 22:17:12 49° NNW 22:21:51 10° NNE
CZ-2C R/B 4.0 22:16:18 10° N 22:21:10 47° NW 22:21:10 47° NW
Cosmos 1655 Rocket 4.1 22:21:04 10° N 22:26:42 74° N 22:26:42 74° N
USA 234 4.4 22:22:44 10° NE 22:28:39 38° NNW 22:32:05 23° W
SeaSat 1 3.3 22:34:43 47° NNE 22:34:43 47° NNE 22:38:27 10° NNW
Meteor 2-10 Rocket 4.0 22:36:18 10° N 22:40:59 63° N 22:40:59 63° N
Meteor 1-18 Rocket 4.5 22:49:51 64° N 22:49:51 64° N 22:54:37 10° N
Cosmos 1244 Rocket 4.4 22:49:04 10° N 22:55:00 81° NE 22:55:00 81° NE
Meteor 2-11 Rocket 4.5 22:51:57 10° N 22:57:32 72° NW 22:57:32 72° NW
Lacrosse 4 Rocket 3.6 23:01:08 20° NNW 23:01:08 20° NNW 23:03:03 10° N
Cosmos 2219 3.8 23:04:46 48° E 23:04:46 48° E 23:09:45 10° NNE
SL-16 R/B 3.0 23:01:43 10° NNW 23:07:12 47° ENE 23:08:40 38° ESE
Cosmos 489 Rocket 4.3 23:12:33 83° WSW 23:12:42 85° WNW 23:19:05 10° NNE
IDEFIX/ARIANE 42P 3.1 23:07:56 10° NNE 23:12:47 50° E 23:12:47 50° E
Cosmos 1151 Rocket 4.2 23:15:33 39° N 23:15:33 39° N 23:18:18 10° N
S3M 4.2 23:14:46 54° ESE 23:15:32 58° E 23:21:33 10° NNE
CZ-2C R/B 4.5 23:18:46 18° WNW 23:18:46 18° WNW 23:20:49 10° NW
NPP 4.4 23:13:09 10° NNE 23:18:16 43° E 23:18:30 42° ESE
Cosmos 2237 Rocket 3.6 23:14:29 10° NW 23:17:27 26° WNW 23:17:27 26° WNW
CENTAUR R/B 3.4 23:20:15 28° ESE 23:20:22 28° ESE 23:25:29 10° NE
Cosmos 1500 Rocket 4.5 23:19:40 10° N 23:22:48 45° N 23:22:48 45° N
Cosmos 2227 Rocket 3.1 23:26:17 36° WNW 23:26:26 36° WNW 23:31:39 10° N
ACS3 Solar Sail 2.3 23:22:45 10° N 23:28:21 43° WNW 23:28:30 43° WNW
Cosmos 2263 Rocket 2.7 23:37:50 46° WNW 23:37:59 46° WNW 23:43:22 10° N
BREEZE-M DEB (TANK) 4.4 23:30:22 10° W 23:41:39 40° NNW 23:45:35 10° NE
MSX 3.7 23:43:05 10° N 23:48:51 77° WNW 23:49:33 67° SW
Cosmos 1709 Rocket 4.0 23:43:33 10° N 23:49:46 80° E 23:51:40 48° SSE
Cosmos 1943 4.3 23:47:35 10° N 23:52:54 41° ENE 23:58:08 10° SE
Cosmos 1666 Rocket 4.2 23:49:04 10° N 23:53:24 51° E 23:54:01 47° ESE
